Weather History for Mazar-I-Sharif, Afghanistan

Change the Weather History Date:

Friday, February 15, 2013

  Actual Average Record
Temperature  
Mean Temperature 48 °F -  
Max Temperature 53 °F 56 °F - ()
Min Temperature 42 °F 36 °F - ()
Degree Days  
Heating Degree Days 16    
Moisture  
Dew Point 31 °F    
Average Humidity 53    
Maximum Humidity 71    
Minimum Humidity 38    
Precipitation  
Precipitation 0.00 in 0.05 in - ()
Sea Level Pressure  
Sea Level Pressure 30.23 in    
Wind  
Wind Speed 10 mph ()    
Max Wind Speed 16 mph    
Max Gust Speed -    
Visibility 5.9 miles    
Events      
T = Trace of Precipitation, MM = Missing Value Source: Averaged Metar Reports

Daily Weather History Graph

Daily Weather History Graph

Search for Another Location

Airport:

Trip Planner

Search our weather history database for the weather conditions in past years. The results will help you decide how hot, cold, wet, or windy it might be!

Date:

Astronomy

Feb. 15, 2013 Rise Set
Actual Time 6:49 AM AFT 5:41 PM AFT
Civil Twilight 6:23 AM AFT 6:08 PM AFT
Nautical Twilight 5:52 AM AFT 6:38 PM AFT
Astronomical Twilight 5:22 AM AFT 7:08 PM AFT
Moon 9:20 AM AFT (2/15) 11:06 PM AFT (2/15)
Length of Visible Light 11h 44m
Length of Day
10h 51m
Waxing Crescent, 26% of the Moon is Illuminated
Feb 15
Waxing Crescent
Feb 18
First Quarter
Feb 26
Full
Mar 5
Last Quarter
Mar 12
New

Hourly Weather History & Observations

Time (AFT) Temp. Windchill Dew Point Humidity Pressure Visibility Wind Dir Wind Speed Gust Speed Precip Events Conditions
12:20 AM 50.0 °F - 41.0 °F 71% 30.18 in 6.2 mi West 13.8 mph - N/A   Mostly Cloudy
1:20 AM 50.0 °F - 35.6 °F 58% 30.18 in 6.2 mi West 13.8 mph - N/A   Mostly Cloudy
2:20 AM 48.2 °F - 33.8 °F 58% 30.18 in 6.2 mi WNW 15.0 mph - N/A   Mostly Cloudy
3:20 AM 46.4 °F 40.7 °F 33.8 °F 62% 30.18 in 6.2 mi West 12.7 mph - N/A   Mostly Cloudy
4:20 AM 46.4 °F 41.1 °F 32.0 °F 57% 30.18 in 6.2 mi West 11.5 mph - N/A   Mostly Cloudy
5:20 AM 44.6 °F 38.4 °F 32.0 °F 61% 30.21 in 6.2 mi West 12.7 mph - N/A   Mostly Cloudy
6:20 AM 44.6 °F 40.2 °F 32.0 °F 61% 30.21 in 6.2 mi West 8.1 mph - N/A   Mostly Cloudy
7:20 AM 44.6 °F 40.7 °F 32.0 °F 61% 30.24 in 4.3 mi West 6.9 mph - N/A   Mostly Cloudy
8:20 AM 46.4 °F 42.4 °F 30.2 °F 53% 30.27 in 4.3 mi West 8.1 mph - N/A   Mostly Cloudy
9:20 AM 46.4 °F 40.4 °F 30.2 °F 53% 30.30 in 5.0 mi WNW 13.8 mph - N/A   Mostly Cloudy
10:20 AM 48.2 °F - 24.8 °F 40% 30.30 in 6.2 mi West 16.1 mph - N/A   Mostly Cloudy
11:20 AM 50.0 °F - 28.4 °F 43% 30.30 in 6.2 mi WNW 16.1 mph - N/A   Mostly Cloudy
12:20 PM 51.8 °F - 30.2 °F 44% 30.27 in 5.6 mi WNW 10.4 mph - N/A   Mostly Cloudy
1:20 PM 51.8 °F - 28.4 °F 41% 30.24 in 5.6 mi WNW 11.5 mph - N/A   Mostly Cloudy
2:20 PM 53.6 °F - 28.4 °F 38% 30.24 in 6.2 mi NW 8.1 mph - N/A   Mostly Cloudy
3:20 PM 51.8 °F - 30.2 °F 44% 30.21 in 6.2 mi WNW 8.1 mph - N/A   Mostly Cloudy
4:20 PM 51.8 °F - 30.2 °F 44% 30.21 in 6.2 mi WNW 6.9 mph - N/A   Mostly Cloudy
5:20 PM 50.0 °F - 30.2 °F 47% 30.21 in 6.2 mi West 6.9 mph - N/A   Mostly Cloudy
6:20 PM 48.2 °F - 30.2 °F 50% 30.24 in 6.2 mi West 5.8 mph - N/A   Mostly Cloudy
7:20 PM 48.2 °F - 32.0 °F 54% 30.24 in 6.2 mi SW 5.8 mph - N/A   Mostly Cloudy
8:20 PM 46.4 °F 43.5 °F 32.0 °F 57% 30.24 in 6.2 mi SW 5.8 mph - N/A   Mostly Cloudy
9:20 PM 48.2 °F - 28.4 °F 46% 30.21 in 6.2 mi SSW 5.8 mph - N/A   Mostly Cloudy
10:20 PM 46.4 °F 44.3 °F 30.2 °F 53% 30.21 in 6.2 mi South 4.6 mph - N/A   Scattered Clouds
11:20 PM 42.8 °F 40.1 °F 32.0 °F 66% 30.21 in 6.2 mi SSE 4.6 mph - N/A   Scattered Clouds